User: anonymous   Login
Location: Unspecified
(0.0000°N, 0.0000°E)
Time: 20:42:02
(UTC+01:00)
Language:

Cosmos 1943 Rocket - Orbit

View from above orbital plane
View from above orbital plane
View from above satellite
View from above satellite

Ground track
Ground track

The orbit data is extracted from the following two-line orbital elements,

1 19120U 88039B   16338.21399906  .00000026  00000-0  35350-4 0  9999
2 19120  71.0157  19.0014 0020073 132.9772 227.3040 14.19163552478581
Epoch (UTC): 03 December 2016 05:08:09
Eccentricity: 0.0020073
inclination: 71.0157°
perigee height: 814 km
apogee height: 842 km
right ascension of ascending node: 19.0014°
argument of perigee: 132.9772°
revolutions per day: 14.19163552
mean anomaly at epoch: 227.3040°
orbit number at epoch: 47858

The dashed part of the orbit path shows where the satellite is in the earth's shadow,  

DLR